Time,TemperatureF,DewpointF,PressureIn,WindDirection,WindDirectionDegrees,WindSpeedMPH,WindSpeedGustMPH,Humidity,HourlyPrecipIn,Conditions,Clouds,dailyrainin,SoftwareType,DateUTC
2013-04-10 00:00:00,66.4,62.4,30.16,East,96,0.0,4.0,87,0.00,,,0.00,Wunderground v.1.15,2013-04-10 04:00:00,
2013-04-10 00:10:00,66.2,62.2,30.16,East,96,0.0,4.0,87,0.00,,,0.00,Wunderground v.1.15,2013-04-10 04:10:00,
2013-04-10 00:20:00,65.9,61.9,30.16,East,96,0.0,4.0,87,0.00,,,0.00,Wunderground v.1.15,2013-04-10 04:20:00,
2013-04-10 00:30:00,65.6,61.9,30.15,East,97,0.0,4.0,88,0.00,,,0.00,Wunderground v.1.15,2013-04-10 04:30:00,
2013-04-10 00:40:00,65.3,61.7,30.15,East,97,0.0,4.0,88,0.00,,,0.00,Wunderground v.1.15,2013-04-10 04:40:00,
2013-04-10 00:50:00,65.0,61.7,30.15,East,97,0.0,4.0,89,0.00,,,0.00,Wunderground v.1.15,2013-04-10 04:50:00,
2013-04-10 01:00:00,65.0,61.7,30.15,East,97,0.0,4.0,89,0.00,,,0.00,Wunderground v.1.15,2013-04-10 05:00:00,
2013-04-10 01:10:00,64.8,61.5,30.14,East,97,0.0,4.0,89,0.00,,,0.00,Wunderground v.1.15,2013-04-10 05:10:00,
2013-04-10 01:20:00,64.6,61.6,30.14,East,97,0.0,4.0,90,0.00,,,0.00,Wunderground v.1.15,2013-04-10 05:20:00,
2013-04-10 01:30:00,64.3,61.3,30.14,East,97,0.0,4.0,90,0.00,,,0.00,Wunderground v.1.15,2013-04-10 05:30:00,
2013-04-10 01:40:00,64.0,61.6,30.14,East,97,0.0,4.0,92,0.00,,,0.00,Wunderground v.1.15,2013-04-10 05:40:00,
2013-04-10 01:50:00,63.9,61.2,30.13,East,101,0.0,4.0,91,0.00,,,0.00,Wunderground v.1.15,2013-04-10 05:50:00,
2013-04-10 02:00:00,63.6,60.9,30.12,East,101,0.0,4.0,91,0.00,,,0.00,Wunderground v.1.15,2013-04-10 06:00:00,
2013-04-10 02:10:00,63.4,60.7,30.12,East,101,0.0,4.0,91,0.00,,,0.00,Wunderground v.1.15,2013-04-10 06:10:00,
2013-04-10 02:20:00,63.0,60.6,30.12,East,101,0.0,4.0,92,0.00,,,0.00,Wunderground v.1.15,2013-04-10 06:20:00,
2013-04-10 02:30:00,62.6,59.9,30.12,East,101,0.0,4.0,91,0.00,,,0.00,Wunderground v.1.15,2013-04-10 06:30:00,
2013-04-10 02:40:00,62.2,59.8,30.12,East,101,0.0,4.0,92,0.00,,,0.00,Wunderground v.1.15,2013-04-10 06:40:00,
2013-04-10 02:50:00,61.8,59.5,30.12,East,101,0.0,4.0,92,0.00,,,0.00,Wunderground v.1.15,2013-04-10 06:50:00,
2013-04-10 03:00:00,61.5,59.5,30.12,East,101,0.0,4.0,93,0.00,,,0.00,Wunderground v.1.15,2013-04-10 07:00:00,
2013-04-10 03:10:00,61.3,59.6,30.11,East,101,0.0,4.0,94,0.00,,,0.00,Wunderground v.1.15,2013-04-10 07:10:00,
2013-04-10 03:20:00,61.1,59.4,30.11,East,101,0.0,4.0,94,0.00,,,0.00,Wunderground v.1.15,2013-04-10 07:20:00,
2013-04-10 03:30:00,60.8,59.1,30.11,East,101,0.0,4.0,94,0.00,,,0.00,Wunderground v.1.15,2013-04-10 07:30:00,
2013-04-10 03:40:00,60.5,58.8,30.11,East,101,0.0,4.0,94,0.00,,,0.00,Wunderground v.1.15,2013-04-10 07:40:00,
2013-04-10 03:50:00,60.3,58.6,30.11,East,101,0.0,4.0,94,0.00,,,0.00,Wunderground v.1.15,2013-04-10 07:50:00,
2013-04-10 04:00:00,59.8,58.1,30.11,East,101,0.0,4.0,94,0.00,,,0.00,Wunderground v.1.15,2013-04-10 08:00:00,
2013-04-10 04:10:00,59.7,58.3,30.11,East,101,0.0,4.0,95,0.00,,,0.00,Wunderground v.1.15,2013-04-10 08:10:00,
2013-04-10 04:20:00,59.5,58.1,30.11,East,101,0.0,4.0,95,0.00,,,0.00,Wunderground v.1.15,2013-04-10 08:20:00,
2013-04-10 04:30:00,59.2,57.8,30.11,East,101,0.0,4.0,95,0.00,,,0.00,Wunderground v.1.15,2013-04-10 08:30:00,
2013-04-10 04:40:00,59.2,58.1,30.11,East,101,0.0,4.0,96,0.00,,,0.00,Wunderground v.1.15,2013-04-10 08:40:00,
2013-04-10 04:50:00,59.1,58.0,30.11,East,101,0.0,4.0,96,0.00,,,0.00,Wunderground v.1.15,2013-04-10 08:50:00,
2013-04-10 05:00:00,58.9,57.5,30.10,East,101,0.0,4.0,95,0.00,,,0.00,Wunderground v.1.15,2013-04-10 09:00:00,
2013-04-10 05:10:00,58.7,57.3,30.10,East,101,0.0,4.0,95,0.00,,,0.00,Wunderground v.1.15,2013-04-10 09:10:00,
2013-04-10 05:20:00,58.5,57.4,30.10,East,101,0.0,4.0,96,0.00,,,0.00,Wunderground v.1.15,2013-04-10 09:20:00,
2013-04-10 05:30:00,58.3,57.2,30.10,East,101,0.0,4.0,96,0.00,,,0.00,Wunderground v.1.15,2013-04-10 09:30:00,
2013-04-10 05:40:00,58.2,57.1,30.10,East,101,0.0,4.0,96,0.00,,,0.00,Wunderground v.1.15,2013-04-10 09:40:00,
2013-04-10 05:50:00,58.3,57.2,30.10,East,101,0.0,4.0,96,0.00,,,0.00,Wunderground v.1.15,2013-04-10 09:50:00,
2013-04-10 06:00:00,58.2,57.1,30.10,East,101,0.0,4.0,96,0.00,,,0.00,Wunderground v.1.15,2013-04-10 10:00:00,
2013-04-10 06:10:00,58.1,57.0,30.10,East,101,0.0,4.0,96,0.00,,,0.00,Wunderground v.1.15,2013-04-10 10:10:00,
2013-04-10 06:20:00,58.2,57.4,30.10,East,101,0.0,4.0,97,0.00,,,0.00,Wunderground v.1.15,2013-04-10 10:20:00,
2013-04-10 06:30:00,58.0,56.9,30.10,East,101,0.0,4.0,96,0.00,,,0.00,Wunderground v.1.15,2013-04-10 10:30:00,
2013-04-10 06:40:00,57.8,56.7,30.10,East,101,0.0,4.0,96,0.00,,,0.00,Wunderground v.1.15,2013-04-10 10:40:00,
2013-04-10 06:50:00,57.5,56.4,30.10,East,101,0.0,4.0,96,0.00,,,0.00,Wunderground v.1.15,2013-04-10 10:50:00,
2013-04-10 07:00:00,57.6,56.8,30.10,East,101,0.0,4.0,97,0.00,,,0.00,Wunderground v.1.15,2013-04-10 11:00:00,
2013-04-10 07:10:00,57.7,56.9,30.10,East,101,0.0,4.0,97,0.00,,,0.00,Wunderground v.1.15,2013-04-10 11:10:00,
2013-04-10 07:20:00,57.7,56.9,30.11,East,101,0.0,4.0,97,0.00,,,0.00,Wunderground v.1.15,2013-04-10 11:20:00,
2013-04-10 07:30:00,57.9,57.1,30.11,East,101,0.0,4.0,97,0.00,,,0.00,Wunderground v.1.15,2013-04-10 11:30:00,
2013-04-10 07:40:00,58.2,57.4,30.11,East,101,0.0,4.0,97,0.00,,,0.00,Wunderground v.1.15,2013-04-10 11:40:00,
2013-04-10 07:50:00,58.4,57.6,30.12,East,101,0.0,4.0,97,0.00,,,0.00,Wunderground v.1.15,2013-04-10 11:50:00,
2013-04-10 08:00:00,59.1,58.5,30.11,East,101,0.0,4.0,98,0.00,,,0.00,Wunderground v.1.15,2013-04-10 12:00:00,
2013-04-10 08:10:00,60.2,59.6,30.12,East,101,0.0,4.0,98,0.00,,,0.00,Wunderground v.1.15,2013-04-10 12:10:00,
2013-04-10 08:20:00,61.6,61.0,30.12,East,101,0.0,4.0,98,0.00,,,0.00,Wunderground v.1.15,2013-04-10 12:20:00,
2013-04-10 08:30:00,62.5,61.9,30.12,East,101,0.0,4.0,98,0.00,,,0.00,Wunderground v.1.15,2013-04-10 12:30:00,
2013-04-10 08:40:00,63.1,62.5,30.12,East,101,0.0,4.0,98,0.00,,,0.00,Wunderground v.1.15,2013-04-10 12:40:00,
2013-04-10 08:50:00,63.8,63.2,30.13,East,101,0.0,4.0,98,0.00,,,0.00,Wunderground v.1.15,2013-04-10 12:50:00,
2013-04-10 09:00:00,64.9,64.0,30.12,ESE,114,0.0,4.0,97,0.00,,,0.00,Wunderground v.1.15,2013-04-10 13:00:00,
2013-04-10 09:10:00,66.7,64.9,30.13,East,93,0.0,4.0,94,0.00,,,0.00,Wunderground v.1.15,2013-04-10 13:10:00,
2013-04-10 09:20:00,68.9,65.2,30.14,South,173,0.0,4.0,88,0.00,,,0.00,Wunderground v.1.15,2013-04-10 13:20:00,
2013-04-10 09:30:00,70.9,65.5,30.14,ESE,107,0.0,4.0,83,0.00,,,0.00,Wunderground v.1.15,2013-04-10 13:30:00,
2013-04-10 09:40:00,72.6,66.1,30.14,ESE,114,0.0,4.0,80,0.00,,,0.00,Wunderground v.1.15,2013-04-10 13:40:00,
2013-04-10 09:50:00,73.7,66.0,30.14,SE,126,0.0,4.0,77,0.00,,,0.00,Wunderground v.1.15,2013-04-10 13:50:00,
2013-04-10 10:00:00,74.2,66.5,30.14,ESE,119,0.0,4.0,77,0.00,,,0.00,Wunderground v.1.15,2013-04-10 14:00:00,
2013-04-10 10:10:00,74.7,66.6,30.14,SE,130,0.0,4.0,76,0.00,,,0.00,Wunderground v.1.15,2013-04-10 14:10:00,
2013-04-10 10:20:00,75.6,67.1,30.14,East,88,1.0,1.0,75,0.00,,,0.00,Wunderground v.1.15,2013-04-10 14:20:00,
2013-04-10 10:30:00,75.3,66.4,30.14,South,183,2.0,2.0,74,0.00,,,0.00,Wunderground v.1.15,2013-04-10 14:30:00,
2013-04-10 10:40:00,75.4,66.5,30.14,SSE,168,1.0,4.0,74,0.00,,,0.00,Wunderground v.1.15,2013-04-10 14:40:00,
2013-04-10 10:50:00,75.6,67.1,30.14,SSE,147,1.0,1.0,75,0.00,,,0.00,Wunderground v.1.15,2013-04-10 14:50:00,
2013-04-10 11:00:00,77.0,66.9,30.13,ENE,70,0.0,4.0,71,0.00,,,0.00,Wunderground v.1.15,2013-04-10 15:00:00,
2013-04-10 11:10:00,78.0,66.6,30.14,SE,126,1.0,1.0,68,0.00,,,0.00,Wunderground v.1.15,2013-04-10 15:10:00,
2013-04-10 11:20:00,78.8,67.3,30.14,WNW,298,0.0,4.0,68,0.00,,,0.00,Wunderground v.1.15,2013-04-10 15:20:00,
2013-04-10 11:30:00,78.6,68.0,30.13,SSE,162,0.0,4.0,70,0.00,,,0.00,Wunderground v.1.15,2013-04-10 15:30:00,
2013-04-10 11:40:00,78.2,67.2,30.13,ESE,106,0.0,4.0,69,0.00,,,0.00,Wunderground v.1.15,2013-04-10 15:40:00,
2013-04-10 11:50:00,78.0,67.0,30.13,SSE,160,0.0,4.0,69,0.00,,,0.00,Wunderground v.1.15,2013-04-10 15:50:00,
2013-04-10 12:00:00,77.9,66.9,30.13,SSE,153,0.0,4.0,69,0.00,,,0.00,Wunderground v.1.15,2013-04-10 16:00:00,
2013-04-10 12:10:00,78.3,67.3,30.13,SE,135,0.0,4.0,69,0.00,,,0.00,Wunderground v.1.15,2013-04-10 16:10:00,
2013-04-10 12:20:00,79.4,67.5,30.13,East,91,0.0,4.0,67,0.00,,,0.00,Wunderground v.1.15,2013-04-10 16:20:00,
2013-04-10 12:30:00,78.3,67.7,30.13,NW,326,0.0,4.0,70,0.00,,,0.00,Wunderground v.1.15,2013-04-10 16:30:00,
2013-04-10 12:40:00,77.4,67.7,30.12,West,274,0.0,4.0,72,0.00,,,0.00,Wunderground v.1.15,2013-04-10 16:40:00,
2013-04-10 12:50:00,77.8,67.6,30.11,South,185,0.0,4.0,71,0.00,,,0.00,Wunderground v.1.15,2013-04-10 16:50:00,
2013-04-10 13:00:00,78.9,68.7,30.11,NE,55,0.0,4.0,71,0.00,,,0.00,Wunderground v.1.15,2013-04-10 17:00:00,
2013-04-10 13:10:00,78.8,67.3,30.11,SSE,159,0.0,4.0,68,0.00,,,0.00,Wunderground v.1.15,2013-04-10 17:10:00,
2013-04-10 13:20:00,78.6,67.6,30.11,NNE,25,0.0,4.0,69,0.00,,,0.00,Wunderground v.1.15,2013-04-10 17:20:00,
2013-04-10 13:30:00,78.7,67.2,30.11,ENE,78,1.0,1.0,68,0.00,,,0.00,Wunderground v.1.15,2013-04-10 17:30:00,
2013-04-10 13:40:00,78.8,68.2,30.11,ENE,66,0.0,4.0,70,0.00,,,0.00,Wunderground v.1.15,2013-04-10 17:40:00,
2013-04-10 13:50:00,78.5,68.3,30.10,SE,142,0.0,4.0,71,0.00,,,0.00,Wunderground v.1.15,2013-04-10 17:50:00,
2013-04-10 14:00:00,79.3,67.8,30.10,ESE,121,1.0,1.0,68,0.00,,,0.00,Wunderground v.1.15,2013-04-10 18:00:00,
2013-04-10 14:10:00,79.2,68.1,30.10,ENE,68,1.0,1.0,69,0.00,,,0.00,Wunderground v.1.15,2013-04-10 18:10:00,
2013-04-10 14:20:00,78.6,66.7,30.10,ENE,76,2.0,2.0,67,0.00,,,0.00,Wunderground v.1.15,2013-04-10 18:20:00,
2013-04-10 14:30:00,79.5,67.1,30.10,ESE,103,2.0,2.0,66,0.00,,,0.00,Wunderground v.1.15,2013-04-10 18:30:00,
2013-04-10 14:40:00,80.6,67.7,30.08,East,96,1.0,1.0,65,0.00,,,0.00,Wunderground v.1.15,2013-04-10 18:40:00,
2013-04-10 14:50:00,80.4,67.6,30.08,East,80,4.0,5.0,65,0.00,,,0.00,Wunderground v.1.15,2013-04-10 18:50:00,
2013-04-10 15:00:00,80.0,67.6,30.08,NE,46,2.0,4.0,66,0.00,,,0.00,Wunderground v.1.15,2013-04-10 19:00:00,
2013-04-10 15:10:00,80.1,67.7,30.07,NE,53,3.0,3.0,66,0.00,,,0.00,Wunderground v.1.15,2013-04-10 19:10:00,
2013-04-10 15:20:00,80.3,67.9,30.07,NE,55,2.0,2.0,66,0.00,,,0.00,Wunderground v.1.15,2013-04-10 19:20:00,
2013-04-10 15:30:00,80.0,68.1,30.06,East,80,3.0,3.0,67,0.00,,,0.00,Wunderground v.1.15,2013-04-10 19:30:00,
2013-04-10 15:40:00,80.4,68.0,30.06,East,94,1.0,9.0,66,0.00,,,0.00,Wunderground v.1.15,2013-04-10 19:40:00,
2013-04-10 15:50:00,80.2,67.4,30.06,ESE,115,5.0,5.0,65,0.00,,,0.00,Wunderground v.1.15,2013-04-10 19:50:00,
2013-04-10 16:00:00,80.4,67.1,30.06,ENE,75,2.0,4.0,64,0.00,,,0.00,Wunderground v.1.15,2013-04-10 20:00:00,
2013-04-10 16:10:00,79.3,67.0,30.06,ENE,71,3.0,4.0,66,0.00,,,0.00,Wunderground v.1.15,2013-04-10 20:10:00,
2013-04-10 16:20:00,79.4,66.6,30.05,ENE,65,2.0,2.0,65,0.00,,,0.00,Wunderground v.1.15,2013-04-10 20:20:00,
2013-04-10 16:30:00,80.2,67.4,30.05,ENE,76,2.0,2.0,65,0.00,,,0.00,Wunderground v.1.15,2013-04-10 20:30:00,
2013-04-10 16:40:00,79.6,66.3,30.05,East,79,3.0,3.0,64,0.00,,,0.00,Wunderground v.1.15,2013-04-10 20:40:00,
2013-04-10 16:50:00,79.3,66.1,30.05,NE,39,2.0,2.0,64,0.00,,,0.00,Wunderground v.1.15,2013-04-10 20:50:00,
2013-04-10 17:00:00,79.2,66.9,30.05,ESE,102,2.0,2.0,66,0.00,,,0.00,Wunderground v.1.15,2013-04-10 21:00:00,
2013-04-10 17:10:00,79.3,66.5,30.05,ENE,66,3.0,4.0,65,0.00,,,0.00,Wunderground v.1.15,2013-04-10 21:10:00,
2013-04-10 17:20:00,79.1,67.2,30.04,ENE,73,3.0,3.0,67,0.00,,,0.00,Wunderground v.1.15,2013-04-10 21:20:00,
2013-04-10 17:30:00,79.7,66.4,30.04,East,93,2.0,4.0,64,0.00,,,0.00,Wunderground v.1.15,2013-04-10 21:30:00,
2013-04-10 17:40:00,79.4,66.6,30.04,ENE,69,4.0,4.0,65,0.00,,,0.00,Wunderground v.1.15,2013-04-10 21:40:00,
2013-04-10 17:50:00,79.7,66.4,30.04,ENE,74,1.0,5.0,64,0.00,,,0.00,Wunderground v.1.15,2013-04-10 21:50:00,
2013-04-10 18:00:00,79.3,66.1,30.04,ESE,109,3.0,3.0,64,0.00,,,0.00,Wunderground v.1.15,2013-04-10 22:00:00,
2013-04-10 18:10:00,79.0,66.2,30.04,East,80,3.0,4.0,65,0.00,,,0.00,Wunderground v.1.15,2013-04-10 22:10:00,
2013-04-10 18:20:00,78.5,65.3,30.03,East,80,3.0,5.0,64,0.00,,,0.00,Wunderground v.1.15,2013-04-10 22:20:00,
2013-04-10 18:30:00,78.2,65.5,30.03,East,96,3.0,3.0,65,0.00,,,0.00,Wunderground v.1.15,2013-04-10 22:30:00,
2013-04-10 18:40:00,78.5,65.8,30.03,ESE,121,0.0,4.0,65,0.00,,,0.00,Wunderground v.1.15,2013-04-10 22:40:00,
2013-04-10 18:50:00,77.9,65.6,30.03,East,84,2.0,9.0,66,0.00,,,0.00,Wunderground v.1.15,2013-04-10 22:50:00,
2013-04-10 19:00:00,77.3,65.5,30.03,East,79,2.0,4.0,67,0.00,,,0.00,Wunderground v.1.15,2013-04-10 23:00:00,
2013-04-10 19:10:00,76.5,65.1,30.03,ENE,69,3.0,7.0,68,0.00,,,0.00,Wunderground v.1.15,2013-04-10 23:10:00,
2013-04-10 19:20:00,75.9,65.4,30.03,ESE,105,3.0,3.0,70,0.00,,,0.00,Wunderground v.1.15,2013-04-10 23:20:00,
2013-04-10 19:30:00,75.3,65.6,30.03,ESE,115,1.0,4.0,72,0.00,,,0.00,Wunderground v.1.15,2013-04-10 23:30:00,
2013-04-10 19:40:00,74.8,65.6,30.03,ENE,69,1.0,1.0,73,0.00,,,0.00,Wunderground v.1.15,2013-04-10 23:40:00,
2013-04-10 19:50:00,74.4,65.6,30.03,ENE,75,1.0,1.0,74,0.00,,,0.00,Wunderground v.1.15,2013-04-10 23:50:00,
2013-04-10 20:00:00,74.0,66.0,30.03,ENE,78,1.0,4.0,76,0.00,,,0.00,Wunderground v.1.15,2013-04-11 00:00:00,
2013-04-10 20:10:00,73.5,66.2,30.03,SE,142,0.0,4.0,78,0.00,,,0.00,Wunderground v.1.15,2013-04-11 00:10:00,
2013-04-10 20:20:00,73.0,66.1,30.03,East,82,1.0,1.0,79,0.00,,,0.00,Wunderground v.1.15,2013-04-11 00:20:00,
2013-04-10 20:30:00,72.7,66.2,30.04,ESE,117,0.0,4.0,80,0.00,,,0.00,Wunderground v.1.15,2013-04-11 00:30:00,
2013-04-10 20:40:00,72.4,66.2,30.04,ESE,111,0.0,4.0,81,0.00,,,0.00,Wunderground v.1.15,2013-04-11 00:40:00,
2013-04-10 20:50:00,72.1,66.3,30.03,ENE,73,0.0,4.0,82,0.00,,,0.00,Wunderground v.1.15,2013-04-11 00:50:00,
2013-04-10 21:00:00,71.9,66.5,30.03,ESE,123,0.0,4.0,83,0.00,,,0.00,Wunderground v.1.15,2013-04-11 01:00:00,
2013-04-10 21:10:00,71.6,66.2,30.03,East,80,0.0,4.0,83,0.00,,,0.00,Wunderground v.1.15,2013-04-11 01:10:00,
2013-04-10 21:20:00,71.3,66.2,30.03,ENE,73,0.0,4.0,84,0.00,,,0.00,Wunderground v.1.15,2013-04-11 01:20:00,
2013-04-10 21:30:00,71.0,66.3,30.03,East,80,0.0,4.0,85,0.00,,,0.00,Wunderground v.1.15,2013-04-11 01:30:00,
2013-04-10 21:40:00,70.8,66.4,30.03,ENE,70,0.0,4.0,86,0.00,,,0.00,Wunderground v.1.15,2013-04-11 01:40:00,
2013-04-10 21:50:00,70.6,66.2,30.03,East,80,0.0,4.0,86,0.00,,,0.00,Wunderground v.1.15,2013-04-11 01:50:00,
2013-04-10 22:00:00,70.5,66.4,30.03,SE,132,0.0,4.0,87,0.00,,,0.00,Wunderground v.1.15,2013-04-11 02:00:00,
2013-04-10 22:10:00,70.4,66.7,30.03,NE,44,1.0,1.0,88,0.00,,,0.00,Wunderground v.1.15,2013-04-11 02:10:00,
2013-04-10 22:20:00,70.2,66.8,30.03,ESE,109,0.0,4.0,89,0.00,,,0.00,Wunderground v.1.15,2013-04-11 02:20:00,
2013-04-10 22:30:00,70.2,66.8,30.03,ENE,57,1.0,1.0,89,0.00,,,0.00,Wunderground v.1.15,2013-04-11 02:30:00,
2013-04-10 22:40:00,70.1,66.7,30.03,East,86,0.0,4.0,89,0.00,,,0.00,Wunderground v.1.15,2013-04-11 02:40:00,
2013-04-10 22:50:00,69.9,66.8,30.03,ENE,58,0.0,4.0,90,0.00,,,0.00,Wunderground v.1.15,2013-04-11 02:50:00,
2013-04-10 23:00:00,69.8,66.7,30.03,East,85,0.0,4.0,90,0.00,,,0.00,Wunderground v.1.15,2013-04-11 03:00:00,
2013-04-10 23:10:00,69.6,66.9,30.03,East,95,0.0,4.0,91,0.00,,,0.00,Wunderground v.1.15,2013-04-11 03:10:00,
2013-04-10 23:20:00,69.6,66.9,30.03,ENE,61,0.0,4.0,91,0.00,,,0.00,Wunderground v.1.15,2013-04-11 03:20:00,
2013-04-10 23:30:00,69.6,67.2,30.02,ESE,103,0.0,4.0,92,0.00,,,0.00,Wunderground v.1.15,2013-04-11 03:30:00,
2013-04-10 23:40:00,69.6,67.2,30.02,ESE,107,0.0,4.0,92,0.00,,,0.00,Wunderground v.1.15,2013-04-11 03:40:00,
2013-04-10 23:50:00,69.6,67.2,30.02,ENE,69,0.0,4.0,92,0.00,,,0.00,Wunderground v.1.15,2013-04-11 03:50:00,